| time (UTC) | temp C | wind direction | speed KPH | gust KPH | rain 1hr cm | rain 24hr cm | rain mn cm | humidity % | barometer mb |
| 20260906111559 | 35 | 164 | 6.4 | 9.7 | 0.00 | 0.00 | 0.00 | 44 | 1020.6 |
| 20260906110053 | 33 | 267 | 3.2 | 8.0 | 0.00 | 0.00 | 0.00 | 45 | 1020.7 |
| 20260906104602 | 34 | 190 | 1.6 | 9.7 | 0.00 | 0.00 | 0.00 | 45 | 1020.7 |
| 20260906103056 | 33 | 155 | 1.6 | 4.8 | 0.00 | 0.00 | 0.00 | 47 | 1020.8 |
| 20260906101602 | 32 | 253 | 1.6 | 4.8 | 0.00 | 0.00 | 0.00 | 49 | 1021.1 |
| 20260906100106 | 31 | 281 | 1.6 | 4.8 | 0.00 | 0.00 | 0.00 | 51 | 1021.2 |
| 20260906094601 | 31 | 8 | 1.6 | 4.8 | 0.00 | 0.00 | 0.00 | 53 | 1021.4 |
| 20260906093059 | 30 | 109 | 1.6 | 4.8 | 0.00 | 0.00 | 0.00 | 54 | 1021.5 |
| 20260906091616 | 30 | 236 | 1.6 | 3.2 | 0.00 | 0.00 | 0.00 | 58 | 1021.6 |
| 20260906090112 | 28 | 294 | 3.2 | 6.4 | 0.00 | 0.00 | 0.00 | 61 | 1021.6 |
| 20260906084601 | 27 | 68 | 1.6 | 6.4 | 0.00 | 0.00 | 0.00 | 63 | 1021.6 |
| 20260906083103 | 27 | 271 | 0.0 | 8.0 | 0.00 | 0.00 | 0.00 | 65 | 1021.6 |
| 20260906081602 | 27 | 55 | 3.2 | 6.4 | 0.00 | 0.00 | 0.00 | 65 | 1021.6 |
| 20260906080111 | 27 | 220 | 0.0 | 4.8 | 0.00 | 0.00 | 0.00 | 66 | 1021.8 |
| 20260906074603 | 26 | 155 | 1.6 | 3.2 | 0.00 | 0.00 | 0.00 | 67 | 1021.5 |
| 20260906073103 | 26 | 274 | 1.6 | 4.8 | 0.00 | 0.00 | 0.00 | 68 | 1021.4 |
| 20260906071606 | 25 | 0 | 0.0 | 4.8 | 0.00 | 0.00 | 0.00 | 71 | 1021.2 |
| 20260906070106 | 24 | 304 | 1.6 | 3.2 | 0.00 | 0.00 | 0.00 | 71 | 1021.0 |
| 20260906064603 | 25 | 160 | 0.0 | 3.2 | 0.00 | 0.00 | 0.00 | 71 | 1021.1 |
| 20260906063058 | 24 | 0 | 0.0 | 1.6 | 0.00 | 0.00 | 0.00 | 74 | 1021.0 |
| 20260906061608 | 23 | 0 | 0.0 | 1.6 | 0.00 | 0.00 | 0.00 | 76 | 1021.0 |
| 20260906060151 | 22 | 0 | 0.0 | 1.6 | 0.00 | 0.00 | 0.00 | 79 | 1020.9 |
| 20260906054606 | 21 | 0 | 0.0 | 1.6 | 0.00 | 0.00 | 0.00 | 80 | 1020.9 |
| 20260906053102 | 21 | 0 | 0.0 | 1.6 | 0.00 | 0.00 | 0.00 | 83 | 1020.8 |
| 20260906051559 | 19 | 0 | 0.0 | 0.0 | 0.00 | 0.00 | 0.00 | 85 | 1020.8 |
| 20260906050116 | 19 | 0 | 0.0 | 0.0 | 0.00 | 0.00 | 0.00 | 85 | 1021.1 |
| 20260906044602 | 19 | 0 | 0.0 | 0.0 | 0.00 | 0.00 | 0.00 | 85 | 1021.0 |
| 20260906043107 | 19 | 0 | 0.0 | 0.0 | 0.00 | 0.00 | 0.00 | 84 | 1020.6 |
| 20260906041604 | 19 | 0 | 0.0 | 0.0 | 0.00 | 0.00 | 0.00 | 84 | 1020.7 |
| 20260906040058 | 20 | 0 | 0.0 | 0.0 | 0.00 | 0.00 | 0.00 | 84 | 1020.6 |
| 20260906034603 | 20 | 0 | 0.0 | 0.0 | 0.00 | 0.00 | 0.00 | 83 | 1020.6 |
| 20260906033101 | 20 | 0 | 0.0 | 0.0 | 0.00 | 0.00 | 0.00 | 83 | 1020.4 |
| 20260906031630 | 20 | 0 | 0.0 | 0.0 | 0.00 | 0.00 | 0.00 | 82 | 1020.3 |
| 20260906030109 | 20 | 0 | 0.0 | 0.0 | 0.00 | 0.00 | 0.00 | 82 | 1020.3 |
| 20260906024605 | 21 | 0 | 0.0 | 1.6 | 0.00 | 0.00 | 0.00 | 81 | 1020.3 |
| 20260906023113 | 21 | 0 | 0.0 | 1.6 | 0.00 | 0.00 | 0.00 | 82 | 1020.4 |
| 20260906021607 | 20 | 0 | 0.0 | 0.0 | 0.00 | 0.00 | 0.00 | 82 | 1020.3 |
| 20260906020103 | 20 | 0 | 0.0 | 0.0 | 0.00 | 0.00 | 0.00 | 81 | 1020.3 |
| 20260906014606 | 21 | 0 | 0.0 | 0.0 | 0.00 | 0.00 | 0.00 | 81 | 1020.2 |
| 20260906013101 | 20 | 0 | 0.0 | 0.0 | 0.00 | 0.00 | 0.00 | 81 | 1020.2 |
| 20260906011612 | 20 | 0 | 0.0 | 0.0 | 0.00 | 0.00 | 0.00 | 81 | 1020.2 |
| 20260906010104 | 21 | 0 | 0.0 | 0.0 | 0.00 | 0.00 | 0.00 | 80 | 1020.1 |
| 20260906004603 | 21 | 0 | 0.0 | 0.0 | 0.00 | 0.00 | 0.00 | 80 | 1020.1 |
| 20260906003108 | 21 | 0 | 0.0 | 0.0 | 0.00 | 0.00 | 0.00 | 78 | 1020.1 |
| 20260906001613 | 21 | 0 | 0.0 | 1.6 | 0.00 | 0.00 | 0.00 | 78 | 1020.1 |
| 20260906000109 | 22 | 0 | 0.0 | 0.0 | 0.00 | 0.00 | 0.00 | 77 | 1020.3 |
| 20260905234601 | 22 | 0 | 0.0 | 0.0 | 0.00 | 0.00 | 0.00 | 78 | 1020.2 |
| 20260905233107 | 22 | 0 | 0.0 | 0.0 | 0.00 | 0.00 | 0.00 | 78 | 1020.2 |
| 20260905231619 | 22 | 0 | 0.0 | 0.0 | 0.00 | 0.00 | 0.00 | 78 | 1020.2 |
| 20260905230108 | 22 | 0 | 0.0 | 0.0 | 0.00 | 0.00 | 0.00 | 76 | 1020.2 |
| 20260905224559 | 23 | 0 | 0.0 | 0.0 | 0.00 | 0.00 | 0.00 | 75 | 1020.1 |
| 20260905223105 | 23 | 0 | 0.0 | 1.6 | 0.00 | 0.00 | 0.00 | 73 | 1020.1 |
| 20260905221631 | 23 | 0 | 0.0 | 1.6 | 0.00 | 0.00 | 0.00 | 73 | 1020.0 |
| 20260905220103 | 24 | 0 | 1.6 | 3.2 | 0.00 | 0.00 | 0.00 | 72 | 1019.9 |
| 20260905214609 | 24 | 47 | 1.6 | 3.2 | 0.00 | 0.00 | 0.00 | 72 | 1019.8 |
| 20260905213105 | 23 | 46 | 1.6 | 3.2 | 0.00 | 0.00 | 0.00 | 74 | 1019.8 |
| 20260905211605 | 23 | 44 | 0.0 | 3.2 | 0.00 | 0.00 | 0.00 | 74 | 1019.7 |
| 20260905210114 | 24 | 0 | 0.0 | 0.0 | 0.00 | 0.00 | 0.00 | 73 | 1019.6 |
| 20260905204601 | 24 | 0 | 0.0 | 1.6 | 0.00 | 0.00 | 0.00 | 73 | 1019.6 |
| 20260905203102 | 25 | 0 | 0.0 | 3.2 | 0.00 | 0.00 | 0.00 | 71 | 1019.5 |
| 20260905201610 | 25 | 179 | 1.6 | 4.8 | 0.00 | 0.00 | 0.00 | 71 | 1019.5 |
| 20260905200130 | 25 | 0 | 0.0 | 0.0 | 0.00 | 0.00 | 0.00 | 71 | 1019.4 |
| 20260905194600 | 25 | 0 | 0.0 | 0.0 | 0.00 | 0.00 | 0.00 | 70 | 1019.3 |
| 20260905193101 | 25 | 0 | 0.0 | 0.0 | 0.00 | 0.00 | 0.00 | 68 | 1019.2 |
| 20260905191602 | 26 | 0 | 0.0 | 1.6 | 0.00 | 0.00 | 0.00 | 66 | 1018.9 |
| 20260905184603 | 27 | 0 | 0.0 | 0.0 | 0.00 | 0.00 | 0.00 | 65 | 1018.7 |
| 20260905183103 | 27 | 0 | 0.0 | 3.2 | 0.00 | 0.00 | 0.00 | 64 | 1018.6 |
| 20260905181609 | 27 | 273 | 0.0 | 1.6 | 0.00 | 0.00 | 0.00 | 64 | 1018.3 |
| 20260905180116 | 28 | 0 | 0.0 | 4.8 | 0.00 | 0.00 | 0.00 | 62 | 1018.1 |
| 20260905174557 | 28 | 0 | 0.0 | 3.2 | 0.00 | 0.00 | 0.00 | 60 | 1018.0 |
| 20260905173132 | 29 | 200 | 0.0 | 4.8 | 0.00 | 0.00 | 0.00 | 57 | 1018.0 |
| 20260905171606 | 30 | 220 | 0.0 | 3.2 | 0.00 | 0.00 | 0.00 | 57 | 1017.9 |
| 20260905170105 | 30 | 162 | 0.0 | 8.0 | 0.00 | 0.00 | 0.00 | 55 | 1017.8 |
| 20260905164615 | 31 | 262 | 0.0 | 4.8 | 0.00 | 0.00 | 0.00 | 50 | 1017.8 |
| 20260905163105 | 32 | 0 | 0.0 | 6.4 | 0.00 | 0.00 | 0.00 | 44 | 1017.7 |
| 20260905161603 | 33 | 0 | 0.0 | 4.8 | 0.00 | 0.00 | 0.00 | 43 | 1017.7 |
| 20260905160105 | 33 | 206 | 0.0 | 9.7 | 0.00 | 0.00 | 0.00 | 42 | 1017.7 |
| 20260905154606 | 33 | 252 | 1.6 | 4.8 | 0.00 | 0.00 | 0.00 | 41 | 1017.6 |
| 20260905153100 | 34 | 0 | 0.0 | 6.4 | 0.00 | 0.00 | 0.00 | 41 | 1017.5 |
| 20260905151605 | 33 | 235 | 3.2 | 8.0 | 0.00 | 0.00 | 0.00 | 42 | 1017.6 |
| 20260905150108 | 33 | 306 | 1.6 | 6.4 | 0.00 | 0.00 | 0.00 | 42 | 1017.7 |
| 20260905144605 | 34 | 289 | 1.6 | 6.4 | 0.00 | 0.00 | 0.00 | 43 | 1017.7 |
| 20260905143104 | 33 | 183 | 1.6 | 6.4 | 0.00 | 0.00 | 0.00 | 42 | 1017.7 |
| 20260905141603 | 33 | 152 | 1.6 | 8.0 | 0.00 | 0.00 | 0.00 | 43 | 1017.8 |
| 20260905140113 | 33 | 112 | 3.2 | 6.4 | 0.00 | 0.00 | 0.00 | 47 | 1018.0 |
| 20260905134609 | 33 | 175 | 3.2 | 8.0 | 0.00 | 0.00 | 0.00 | 48 | 1018.2 |
| 20260905133102 | 33 | 119 | 1.6 | 8.0 | 0.00 | 0.00 | 0.00 | 46 | 1018.3 |
| 20260905131602 | 33 | 356 | 1.6 | 6.4 | 0.00 | 0.00 | 0.00 | 42 | 1018.3 |
| 20260905130105 | 33 | 318 | 3.2 | 8.0 | 0.00 | 0.00 | 0.00 | 41 | 1018.6 |
| 20260905124604 | 32 | 196 | 4.8 | 14.5 | 0.00 | 0.00 | 0.00 | 47 | 1018.6 |
| 20260905123106 | 32 | 262 | 4.8 | 12.9 | 0.00 | 0.00 | 0.00 | 47 | 1018.7 |
| 20260905121605 | 33 | 349 | 1.6 | 8.0 | 0.00 | 0.00 | 0.00 | 46 | 1018.7 |
| 20260905120112 | 32 | 228 | 3.2 | 11.3 | 0.00 | 0.00 | 0.00 | 47 | 1018.9 |
| 20260905114610 | 32 | 357 | 3.2 | 9.7 | 0.00 | 0.00 | 0.00 | 46 | 1019.1 |
| 20260905113103 | 32 | 272 | 1.6 | 8.0 | 0.00 | 0.00 | 0.00 | 46 | 1019.3 |